Time,TemperatureF,DewpointF,PressureIn,WindDirection,WindDirectionDegrees,WindSpeedMPH,WindSpeedGustMPH,Humidity,HourlyPrecipIn,Conditions,Clouds,dailyrainin,SoftwareType,DateUTC
2013-05-31 00:01:00,64.8,59.8,30.01,SW,225,1.8,2.3,84,0.00,RA,,0.00,WeatherDisplay:10.37,2013-05-31 04:01:00,
2013-05-31 00:06:00,64.8,59.8,30.01,SW,225,0.0,2.7,84,0.00,RA,,0.00,WeatherDisplay:10.37,2013-05-31 04:06:00,
2013-05-31 00:11:00,64.6,59.3,30.01,SW,225,0.0,2.7,83,0.00,CLR,,0.00,WeatherDisplay:10.37,2013-05-31 04:11:00,
2013-05-31 00:16:00,64.6,59.3,30.01,SSW,202,1.1,2.7,83,0.00,CLR,,0.00,WeatherDisplay:10.37,2013-05-31 04:16:00,
2013-05-31 00:21:00,64.6,59.3,30.01,SSW,202,0.7,2.7,83,0.00,CLR,,0.00,WeatherDisplay:10.37,2013-05-31 04:21:00,
2013-05-31 00:26:00,64.6,59.3,30.01,WSW,248,0.0,2.7,83,0.00,CLR,,0.00,WeatherDisplay:10.37,2013-05-31 04:26:00,
2013-05-31 00:31:00,64.4,59.1,30.01,WSW,248,0.5,2.7,83,0.00,CLR,,0.00,WeatherDisplay:10.37,2013-05-31 04:31:00,
2013-05-31 00:36:00,64.4,59.1,30.01,WNW,292,0.5,2.7,83,0.00,CLR,,0.00,WeatherDisplay:10.37,2013-05-31 04:36:00,
2013-05-31 00:41:00,64.4,59.1,30.01,WNW,292,0.5,2.7,83,0.00,CLR,,0.00,WeatherDisplay:10.37,2013-05-31 04:41:00,
2013-05-31 00:46:00,64.4,59.1,30.01,NNW,338,0.0,2.7,83,0.00,CLR,,0.00,WeatherDisplay:10.37,2013-05-31 04:46:00,
2013-05-31 00:51:00,64.2,58.9,30.01,WNW,292,0.5,2.7,83,0.00,CLR,,0.00,WeatherDisplay:10.37,2013-05-31 04:51:00,
2013-05-31 00:56:00,64.2,58.9,30.01,WNW,292,0.0,2.7,83,0.00,CLR,,0.00,WeatherDisplay:10.37,2013-05-31 04:56:00,
2013-05-31 01:01:00,64.0,58.8,30.01,West,270,0.7,2.3,83,0.00,CLR,,0.00,WeatherDisplay:10.37,2013-05-31 05:01:00,
2013-05-31 01:06:00,64.0,58.8,30.01,SW,225,0.5,1.3,83,0.00,CLR,,0.00,WeatherDisplay:10.37,2013-05-31 05:06:00,
2013-05-31 01:11:00,64.0,58.8,30.01,NNE,22,0.0,1.3,83,0.00,CLR,,0.00,WeatherDisplay:10.37,2013-05-31 05:11:00,
2013-05-31 01:16:00,63.9,58.6,30.01,NW,315,0.0,1.3,83,0.00,CLR,,0.00,WeatherDisplay:10.37,2013-05-31 05:16:00,
2013-05-31 01:21:00,63.7,58.4,30.01,WNW,292,0.0,1.3,83,0.00,CLR,,0.00,WeatherDisplay:10.37,2013-05-31 05:21:00,
2013-05-31 01:26:00,63.7,58.4,30.01,SSE,158,0.0,1.3,83,0.00,CLR,,0.00,WeatherDisplay:10.37,2013-05-31 05:26:00,
2013-05-31 01:31:00,63.7,58.8,30.01,NNW,338,0.0,1.3,84,0.00,CLR,,0.00,WeatherDisplay:10.37,2013-05-31 05:31:00,
2013-05-31 01:36:00,63.5,58.2,30.01,WNW,292,0.5,1.3,83,0.00,CLR,,0.00,WeatherDisplay:10.37,2013-05-31 05:36:00,
2013-05-31 01:41:00,63.5,58.6,30.01,West,270,0.2,1.3,84,0.00,CLR,,0.00,WeatherDisplay:10.37,2013-05-31 05:41:00,
2013-05-31 01:46:00,63.3,58.4,30.01,SW,225,0.2,1.3,84,0.00,CLR,,0.00,WeatherDisplay:10.37,2013-05-31 05:46:00,
2013-05-31 01:51:00,63.3,58.4,30.01,WSW,248,0.0,1.3,84,0.00,CLR,,0.00,WeatherDisplay:10.37,2013-05-31 05:51:00,
2013-05-31 01:56:00,63.1,58.2,30.01,NNW,338,0.0,1.3,84,0.00,CLR,,0.00,WeatherDisplay:10.37,2013-05-31 05:56:00,
2013-05-31 02:01:00,63.0,58.0,30.00,NNW,338,0.5,1.3,84,0.00,CLR,,0.00,WeatherDisplay:10.37,2013-05-31 06:01:00,
2013-05-31 02:06:00,63.0,58.0,30.00,SSW,202,0.2,1.3,84,0.00,CLR,,0.00,WeatherDisplay:10.37,2013-05-31 06:06:00,
2013-05-31 02:11:00,62.8,57.9,30.00,SW,225,0.5,1.1,84,0.00,CLR,,0.00,WeatherDisplay:10.37,2013-05-31 06:11:00,
2013-05-31 02:16:00,62.8,58.2,30.00,SW,225,0.5,1.3,85,0.00,CLR,,0.00,WeatherDisplay:10.37,2013-05-31 06:16:00,
2013-05-31 02:21:00,62.6,58.0,30.00,SW,225,0.0,1.3,85,0.00,CLR,,0.00,WeatherDisplay:10.37,2013-05-31 06:21:00,
2013-05-31 02:26:00,62.4,57.8,30.00,WNW,292,0.0,1.3,85,0.00,CLR,,0.00,WeatherDisplay:10.37,2013-05-31 06:26:00,
2013-05-31 02:31:00,62.4,57.8,30.00,WSW,248,0.0,1.3,85,0.00,CLR,,0.00,WeatherDisplay:10.37,2013-05-31 06:31:00,
2013-05-31 02:36:00,62.2,57.7,30.00,WNW,292,0.0,1.3,85,0.00,CLR,,0.00,WeatherDisplay:10.37,2013-05-31 06:36:00,
2013-05-31 02:41:00,62.2,57.7,30.00,SW,225,0.0,1.3,85,0.00,CLR,,0.00,WeatherDisplay:10.37,2013-05-31 06:41:00,
2013-05-31 02:46:00,62.2,57.7,30.00,WSW,248,0.0,1.3,85,0.00,CLR,,0.00,WeatherDisplay:10.37,2013-05-31 06:46:00,
2013-05-31 02:51:00,62.1,57.5,30.00,WSW,248,0.0,1.3,85,0.00,CLR,,0.00,WeatherDisplay:10.37,2013-05-31 06:51:00,
2013-05-31 02:56:00,61.9,57.3,30.00,WSW,248,0.0,1.3,85,0.00,CLR,,0.00,WeatherDisplay:10.37,2013-05-31 06:56:00,
2013-05-31 03:01:00,61.9,57.3,30.00,SW,225,0.0,1.1,85,0.00,CLR,,0.00,WeatherDisplay:10.37,2013-05-31 07:01:00,
2013-05-31 03:06:00,61.7,57.5,30.01,SW,225,1.1,0.0,86,0.00,CLR,,0.00,WeatherDisplay:10.37,2013-05-31 07:06:00,
2013-05-31 03:11:00,61.5,57.3,30.00,SW,225,0.0,0.0,86,0.00,CLR,,0.00,WeatherDisplay:10.37,2013-05-31 07:11:00,
2013-05-31 03:16:00,61.5,57.3,30.00,SW,225,0.0,0.0,86,0.00,CLR,,0.00,WeatherDisplay:10.37,2013-05-31 07:16:00,
2013-05-31 03:21:00,61.5,57.3,30.00,SW,225,0.0,0.0,86,0.00,CLR,,0.00,WeatherDisplay:10.37,2013-05-31 07:21:00,
2013-05-31 03:26:00,61.5,57.3,30.00,SW,225,0.0,0.0,86,0.00,CLR,,0.00,WeatherDisplay:10.37,2013-05-31 07:26:00,
2013-05-31 03:31:00,61.3,57.1,30.00,SW,225,0.0,0.0,86,0.00,CLR,,0.00,WeatherDisplay:10.37,2013-05-31 07:31:00,
2013-05-31 03:36:00,61.3,57.1,30.00,SW,225,0.0,0.0,86,0.00,CLR,,0.00,WeatherDisplay:10.37,2013-05-31 07:36:00,
2013-05-31 03:41:00,61.2,56.9,30.00,SW,225,0.0,0.0,86,0.00,CLR,,0.00,WeatherDisplay:10.37,2013-05-31 07:41:00,
2013-05-31 03:46:00,61.2,56.9,30.00,SSW,202,0.0,0.0,86,0.00,CLR,,0.00,WeatherDisplay:10.37,2013-05-31 07:46:00,
2013-05-31 03:51:00,61.0,56.8,30.00,SSW,202,0.0,0.0,86,0.00,CLR,,0.00,WeatherDisplay:10.37,2013-05-31 07:51:00,
2013-05-31 03:56:00,60.8,56.6,30.00,SSW,202,0.0,0.0,86,0.00,CLR,,0.00,WeatherDisplay:10.37,2013-05-31 07:56:00,
2013-05-31 04:01:00,60.8,56.6,30.00,SSW,202,0.0,0.0,86,0.00,CLR,,0.00,WeatherDisplay:10.37,2013-05-31 08:01:00,
2013-05-31 04:06:00,60.8,56.9,30.00,SSW,202,0.0,0.0,87,0.00,CLR,,0.00,WeatherDisplay:10.37,2013-05-31 08:06:00,
2013-05-31 04:11:00,60.6,56.7,30.00,SSW,202,0.0,0.0,87,0.00,CLR,,0.00,WeatherDisplay:10.37,2013-05-31 08:11:00,
2013-05-31 04:16:00,60.6,56.7,30.01,SSW,202,0.0,0.0,87,0.00,CLR,,0.00,WeatherDisplay:10.37,2013-05-31 08:16:00,
2013-05-31 04:21:00,60.4,56.6,30.00,SSW,202,0.0,0.0,87,0.00,CLR,,0.00,WeatherDisplay:10.37,2013-05-31 08:21:00,
2013-05-31 04:26:00,60.4,56.6,30.00,SSW,202,0.0,0.0,87,0.00,CLR,,0.00,WeatherDisplay:10.37,2013-05-31 08:26:00,
2013-05-31 04:31:00,60.3,56.4,30.00,SSW,202,0.0,0.0,87,0.00,CLR,,0.00,WeatherDisplay:10.37,2013-05-31 08:31:00,
2013-05-31 04:36:00,60.3,56.4,30.00,SW,225,0.5,1.1,87,0.00,CLR,,0.00,WeatherDisplay:10.37,2013-05-31 08:36:00,
2013-05-31 04:41:00,60.1,56.2,30.01,SW,225,0.0,0.0,87,0.00,CLR,,0.00,WeatherDisplay:10.37,2013-05-31 08:41:00,
2013-05-31 04:46:00,60.1,56.2,30.00,SW,225,0.0,0.0,87,0.00,CLR,,0.00,WeatherDisplay:10.37,2013-05-31 08:46:00,
2013-05-31 04:51:00,60.1,56.2,30.01,SW,225,0.0,0.0,87,0.00,CLR,,0.00,WeatherDisplay:10.37,2013-05-31 08:51:00,
2013-05-31 04:56:00,60.1,56.2,30.01,WSW,248,0.2,0.2,87,0.00,CLR,,0.00,WeatherDisplay:10.37,2013-05-31 08:56:00,
2013-05-31 05:01:00,60.1,56.2,30.01,WSW,248,0.0,0.0,87,0.00,CLR,,0.00,WeatherDisplay:10.37,2013-05-31 09:01:00,
2013-05-31 05:06:00,59.9,56.0,30.00,WSW,248,0.0,0.0,87,0.00,CLR,,0.00,WeatherDisplay:10.37,2013-05-31 09:06:00,
2013-05-31 05:11:00,59.7,55.8,30.00,WSW,248,0.0,0.0,87,0.00,CLR,,0.00,WeatherDisplay:10.37,2013-05-31 09:11:00,
2013-05-31 05:16:00,59.7,55.8,30.01,WSW,248,0.0,0.0,87,0.00,CLR,,0.00,WeatherDisplay:10.37,2013-05-31 09:16:00,
2013-05-31 05:21:00,59.7,55.8,30.01,WSW,248,0.0,0.0,87,0.00,CLR,,0.00,WeatherDisplay:10.37,2013-05-31 09:21:00,
2013-05-31 05:26:00,59.7,56.2,30.01,WSW,248,0.0,0.0,88,0.00,CLR,,0.00,WeatherDisplay:10.37,2013-05-31 09:26:00,
2013-05-31 05:31:00,59.7,56.2,30.01,WSW,248,0.0,0.0,88,0.00,CLR,,0.00,WeatherDisplay:10.37,2013-05-31 09:31:00,
2013-05-31 05:36:00,59.7,56.2,30.01,WSW,248,0.0,0.0,88,0.00,CLR,,0.00,WeatherDisplay:10.37,2013-05-31 09:36:00,
2013-05-31 05:41:00,59.7,56.2,30.01,SW,225,0.0,0.0,88,0.00,CLR,,0.00,WeatherDisplay:10.37,2013-05-31 09:41:00,
2013-05-31 05:46:00,59.9,56.3,30.02,SW,225,0.0,0.0,88,0.00,CLR,,0.00,WeatherDisplay:10.37,2013-05-31 09:46:00,
2013-05-31 05:51:00,60.1,56.5,30.02,SW,225,0.0,0.0,88,0.00,CLR,,0.00,WeatherDisplay:10.37,2013-05-31 09:51:00,
2013-05-31 05:56:00,60.1,56.5,30.02,SW,225,0.0,0.0,88,0.00,CLR,,0.00,WeatherDisplay:10.37,2013-05-31 09:56:00,
2013-05-31 06:01:00,60.3,56.7,30.02,SW,225,0.0,0.0,88,0.00,CLR,,0.00,WeatherDisplay:10.37,2013-05-31 10:01:00,
2013-05-31 06:06:00,60.4,56.9,30.02,SW,225,0.0,0.0,88,0.00,CLR,,0.00,WeatherDisplay:10.37,2013-05-31 10:06:00,
2013-05-31 06:11:00,60.6,57.0,30.02,SW,225,0.0,0.0,88,0.00,CLR,,0.00,WeatherDisplay:10.37,2013-05-31 10:11:00,
2013-05-31 06:16:00,61.0,57.7,30.02,SW,225,0.0,0.0,89,0.00,CLR,,0.00,WeatherDisplay:10.37,2013-05-31 10:16:00,
2013-05-31 06:21:00,61.2,57.9,30.03,WSW,248,0.0,0.0,89,0.00,CLR,,0.00,WeatherDisplay:10.37,2013-05-31 10:21:00,
2013-05-31 06:26:00,61.5,58.2,30.03,WSW,248,0.0,0.0,89,0.00,CLR,,0.00,WeatherDisplay:10.37,2013-05-31 10:26:00,
2013-05-31 06:31:00,61.9,58.6,30.03,WSW,248,0.0,0.0,89,0.00,CLR,,0.00,WeatherDisplay:10.37,2013-05-31 10:31:00,
2013-05-31 06:36:00,62.2,58.6,30.03,SW,225,0.0,1.1,88,0.00,CLR,,0.00,WeatherDisplay:10.37,2013-05-31 10:36:00,
2013-05-31 06:41:00,62.8,59.2,30.03,SW,225,0.0,0.0,88,0.00,CLR,,0.00,WeatherDisplay:10.37,2013-05-31 10:41:00,
2013-05-31 06:46:00,63.1,59.5,30.02,SW,225,0.0,0.0,88,0.00,CLR,,0.00,WeatherDisplay:10.37,2013-05-31 10:46:00,
2013-05-31 06:51:00,63.7,60.1,30.03,SW,225,0.0,0.0,88,0.00,CLR,,0.00,WeatherDisplay:10.37,2013-05-31 10:51:00,
2013-05-31 06:56:00,64.4,60.8,30.02,SW,225,0.0,0.0,88,0.00,CLR,,0.00,WeatherDisplay:10.37,2013-05-31 10:56:00,
2013-05-31 07:01:00,64.8,60.8,30.03,SW,225,0.2,1.1,87,0.00,CLR,,0.00,WeatherDisplay:10.37,2013-05-31 11:01:00,
2013-05-31 07:06:00,65.5,61.8,30.03,SSW,202,0.5,2.3,88,0.00,CLR,,0.00,WeatherDisplay:10.37,2013-05-31 11:06:00,
2013-05-31 07:11:00,65.8,62.2,30.03,SW,225,0.0,1.3,88,0.00,CLR,,0.00,WeatherDisplay:10.37,2013-05-31 11:11:00,
2013-05-31 07:16:00,66.4,62.7,30.03,WNW,292,0.5,1.1,88,0.00,CLR,,0.00,WeatherDisplay:10.37,2013-05-31 11:16:00,
2013-05-31 07:21:00,67.1,63.1,30.03,WNW,292,0.0,1.3,87,0.00,CLR,,0.00,WeatherDisplay:10.37,2013-05-31 11:21:00,
2013-05-31 07:26:00,67.8,63.8,30.03,WNW,292,0.0,1.1,87,0.00,CLR,,0.00,WeatherDisplay:10.37,2013-05-31 11:26:00,
2013-05-31 07:31:00,68.4,64.0,30.03,WNW,292,0.0,1.1,86,0.00,CLR,,0.00,WeatherDisplay:10.37,2013-05-31 11:31:00,
2013-05-31 07:36:00,69.3,64.9,30.03,WNW,292,0.0,1.1,86,0.00,CLR,,0.00,WeatherDisplay:10.37,2013-05-31 11:36:00,
2013-05-31 07:41:00,70.0,65.3,30.03,West,270,0.0,1.1,85,0.00,CLR,,0.00,WeatherDisplay:10.37,2013-05-31 11:41:00,
2013-05-31 07:46:00,70.7,66.0,30.03,West,270,0.0,1.1,85,0.00,CLR,,0.00,WeatherDisplay:10.37,2013-05-31 11:46:00,
2013-05-31 07:51:00,71.4,66.3,30.03,West,270,0.5,1.3,84,0.00,CLR,,0.00,WeatherDisplay:10.37,2013-05-31 11:51:00,
2013-05-31 07:56:00,72.3,67.2,30.03,West,270,0.0,1.3,84,0.00,CLR,,0.00,WeatherDisplay:10.37,2013-05-31 11:56:00,
2013-05-31 08:01:00,73.0,67.9,30.04,WNW,292,0.0,1.1,84,0.00,CLR,,0.00,WeatherDisplay:10.37,2013-05-31 12:01:00,
2013-05-31 08:06:00,73.8,68.3,30.03,WSW,248,0.0,0.0,83,0.00,CLR,,0.00,WeatherDisplay:10.37,2013-05-31 12:06:00,
2013-05-31 08:11:00,74.5,68.3,30.03,NNE,22,0.5,1.1,81,0.00,CLR,,0.00,WeatherDisplay:10.37,2013-05-31 12:11:00,
2013-05-31 08:16:00,75.4,69.1,30.03,NNE,22,0.0,0.0,81,0.00,CLR,,0.00,WeatherDisplay:10.37,2013-05-31 12:16:00,
2013-05-31 08:21:00,76.1,69.8,30.03,NNE,22,0.2,0.2,81,0.00,CLR,,0.00,WeatherDisplay:10.37,2013-05-31 12:21:00,
2013-05-31 08:26:00,77.0,70.4,30.03,WNW,292,0.5,1.1,80,0.00,CLR,,0.00,WeatherDisplay:10.37,2013-05-31 12:26:00,
2013-05-31 08:31:00,77.7,70.3,30.03,NW,315,0.5,0.5,78,0.00,CLR,,0.00,WeatherDisplay:10.37,2013-05-31 12:31:00,
2013-05-31 08:36:00,78.4,71.0,30.03,NNW,338,2.0,2.3,78,0.00,CLR,,0.00,WeatherDisplay:10.37,2013-05-31 12:36:00,
2013-05-31 08:41:00,79.2,71.3,30.03,WNW,292,0.0,0.0,77,0.00,CLR,,0.00,WeatherDisplay:10.37,2013-05-31 12:41:00,
2013-05-31 08:46:00,79.9,71.6,30.03,WSW,248,0.0,0.0,76,0.00,CLR,,0.00,WeatherDisplay:10.37,2013-05-31 12:46:00,
2013-05-31 08:51:00,80.6,71.9,30.03,NNE,22,0.0,0.0,75,0.00,CLR,,0.00,WeatherDisplay:10.37,2013-05-31 12:51:00,
2013-05-31 08:56:00,81.0,71.1,30.03,NNW,338,0.2,2.3,72,0.00,CLR,,0.00,WeatherDisplay:10.37,2013-05-31 12:56:00,
2013-05-31 09:01:00,81.5,70.8,30.03,NNW,338,0.5,2.3,70,0.00,CLR,,0.00,WeatherDisplay:10.37,2013-05-31 13:01:00,
2013-05-31 09:06:00,82.2,71.9,30.03,North,0,1.1,1.1,71,0.00,CLR,,0.00,WeatherDisplay:10.37,2013-05-31 13:06:00,
2013-05-31 09:11:00,82.8,71.5,30.03,West,270,0.5,1.3,69,0.00,CLR,,0.00,WeatherDisplay:10.37,2013-05-31 13:11:00,
2013-05-31 09:16:00,83.5,71.8,30.03,SSW,202,0.0,1.1,68,0.00,CLR,,0.00,WeatherDisplay:10.37,2013-05-31 13:16:00,
2013-05-31 09:21:00,84.2,72.0,30.03,NW,315,0.0,1.1,67,0.00,CLR,,0.00,WeatherDisplay:10.37,2013-05-31 13:21:00,
2013-05-31 09:26:00,84.7,72.6,30.03,NNW,338,0.0,1.1,67,0.00,CLR,,0.00,WeatherDisplay:10.37,2013-05-31 13:26:00,
2013-05-31 09:31:00,85.3,71.3,30.03,North,0,0.0,1.3,63,0.00,CLR,,0.00,WeatherDisplay:10.37,2013-05-31 13:31:00,
2013-05-31 09:36:00,85.6,71.1,30.03,NNW,338,0.0,1.3,62,0.00,CLR,,0.00,WeatherDisplay:10.37,2013-05-31 13:36:00,
2013-05-31 09:41:00,86.0,69.5,30.03,SW,225,0.2,1.3,58,0.00,CLR,,0.00,WeatherDisplay:10.37,2013-05-31 13:41:00,
2013-05-31 09:46:00,86.7,70.2,30.03,NW,315,0.5,1.3,58,0.00,CLR,,0.00,WeatherDisplay:10.37,2013-05-31 13:46:00,
2013-05-31 09:51:00,87.1,69.5,30.02,NE,45,0.9,2.3,56,0.00,CLR,,0.00,WeatherDisplay:10.37,2013-05-31 13:51:00,
2013-05-31 09:56:00,87.4,70.3,30.02,West,270,0.7,1.3,57,0.00,CLR,,0.00,WeatherDisplay:10.37,2013-05-31 13:56:00,
2013-05-31 10:01:00,88.0,71.9,30.02,NW,315,1.1,1.3,59,0.00,CLR,,0.00,WeatherDisplay:10.37,2013-05-31 14:01:00,
2013-05-31 10:06:00,88.3,70.7,30.02,North,0,0.5,1.3,56,0.00,CLR,,0.00,WeatherDisplay:10.37,2013-05-31 14:06:00,
2013-05-31 10:11:00,88.5,71.3,30.02,East,90,1.8,2.3,57,0.00,CLR,,0.00,WeatherDisplay:10.37,2013-05-31 14:11:00,
2013-05-31 10:16:00,89.1,70.8,30.02,North,0,1.4,2.3,55,0.00,CLR,,0.00,WeatherDisplay:10.37,2013-05-31 14:16:00,
2013-05-31 10:21:00,89.4,71.1,30.02,ENE,68,1.8,1.8,55,0.00,CLR,,0.00,WeatherDisplay:10.37,2013-05-31 14:21:00,
2013-05-31 10:26:00,90.0,71.6,30.01,North,0,0.2,2.3,55,0.00,CLR,,0.00,WeatherDisplay:10.37,2013-05-31 14:26:00,
2013-05-31 10:31:00,90.3,72.0,30.02,NNE,22,1.8,1.8,55,0.00,CLR,,0.00,WeatherDisplay:10.37,2013-05-31 14:31:00,
2013-05-31 10:36:00,90.7,71.7,30.01,East,90,0.2,1.3,54,0.00,CLR,,0.00,WeatherDisplay:10.37,2013-05-31 14:36:00,
2013-05-31 10:41:00,91.2,71.7,30.01,WSW,248,1.8,3.5,53,0.00,CLR,,0.00,WeatherDisplay:10.37,2013-05-31 14:41:00,
2013-05-31 10:46:00,91.4,71.3,30.01,SW,225,2.0,2.3,52,0.00,CLR,,0.00,WeatherDisplay:10.37,2013-05-31 14:46:00,
2013-05-31 10:51:00,91.6,71.5,30.01,SW,225,2.4,4.6,52,0.00,CLR,,0.00,WeatherDisplay:10.37,2013-05-31 14:51:00,
2013-05-31 10:56:00,91.4,72.4,30.01,South,180,3.6,4.6,54,0.00,CLR,,0.00,WeatherDisplay:10.37,2013-05-31 14:56:00,
2013-05-31 11:01:00,91.4,72.4,30.01,SSW,202,5.2,5.4,54,0.00,CLR,,0.00,WeatherDisplay:10.37,2013-05-31 15:01:00,
2013-05-31 11:06:00,91.2,72.2,30.01,SW,225,1.1,5.8,54,0.00,CLR,,0.00,WeatherDisplay:10.37,2013-05-31 15:06:00,
2013-05-31 11:11:00,91.2,71.1,30.01,SW,225,4.5,5.8,52,0.00,CLR,,0.00,WeatherDisplay:10.37,2013-05-31 15:11:00,
2013-05-31 11:16:00,90.9,71.9,30.01,SW,225,3.6,6.9,54,0.00,CLR,,0.00,WeatherDisplay:10.37,2013-05-31 15:16:00,
2013-05-31 11:21:00,90.5,71.6,30.01,SSW,202,1.8,5.8,54,0.00,CLR,,0.00,WeatherDisplay:10.37,2013-05-31 15:21:00,
2013-05-31 11:26:00,90.3,73.0,30.01,SSE,158,1.6,5.8,57,0.00,CLR,,0.00,WeatherDisplay:10.37,2013-05-31 15:26:00,
2013-05-31 11:31:00,90.5,72.1,30.01,SSE,158,0.7,5.8,55,0.00,CLR,,0.00,WeatherDisplay:10.37,2013-05-31 15:31:00,
2013-05-31 11:36:00,90.7,73.4,30.01,SSE,158,1.4,5.8,57,0.00,CLR,,0.00,WeatherDisplay:10.37,2013-05-31 15:36:00,
2013-05-31 11:41:00,90.7,73.4,30.01,SW,225,1.4,5.8,57,0.00,CLR,,0.00,WeatherDisplay:10.37,2013-05-31 15:41:00,
2013-05-31 11:46:00,90.7,72.8,30.01,SW,225,1.8,5.8,56,0.00,CLR,,0.00,WeatherDisplay:10.37,2013-05-31 15:46:00,
2013-05-31 11:51:00,90.9,73.0,30.01,SSE,158,2.2,5.8,56,0.00,CLR,,0.00,WeatherDisplay:10.37,2013-05-31 15:51:00,
2013-05-31 11:56:00,90.9,71.9,30.00,SW,225,4.0,5.8,54,0.00,CLR,,0.00,WeatherDisplay:10.37,2013-05-31 15:56:00,
2013-05-31 12:01:00,91.0,69.8,30.00,SSW,202,6.7,8.1,50,0.00,CLR,,0.00,WeatherDisplay:10.37,2013-05-31 16:01:00,
2013-05-31 12:06:00,90.9,70.2,30.00,SSW,202,3.3,11.5,51,0.00,CLR,,0.00,WeatherDisplay:10.37,2013-05-31 16:06:00,
2013-05-31 12:11:00,91.2,71.1,30.00,South,180,2.2,11.5,52,0.00,CLR,,0.00,WeatherDisplay:10.37,2013-05-31 16:11:00,
2013-05-31 12:16:00,91.2,70.0,30.01,South,180,8.7,11.5,50,0.00,CLR,,0.00,WeatherDisplay:10.37,2013-05-31 16:16:00,
2013-05-31 12:21:00,90.9,70.8,30.00,SSW,202,2.4,11.5,52,0.00,CLR,,0.00,WeatherDisplay:10.37,2013-05-31 16:21:00,
2013-05-31 12:26:00,90.7,69.5,30.00,SSW,202,6.9,11.5,50,0.00,CLR,,0.00,WeatherDisplay:10.37,2013-05-31 16:26:00,
2013-05-31 12:31:00,90.3,69.2,30.00,SSE,158,5.6,11.5,50,0.00,CLR,,0.00,WeatherDisplay:10.37,2013-05-31 16:31:00,
2013-05-31 12:36:00,90.3,70.9,30.00,SSW,202,2.0,11.5,53,0.00,CLR,,0.00,WeatherDisplay:10.37,2013-05-31 16:36:00,
2013-05-31 12:41:00,90.0,70.5,30.00,SSW,202,2.2,11.5,53,0.00,CLR,,0.00,WeatherDisplay:10.37,2013-05-31 16:41:00,
2013-05-31 12:46:00,90.1,70.1,30.00,SW,225,6.0,11.5,52,0.00,CLR,,0.00,WeatherDisplay:10.37,2013-05-31 16:46:00,
2013-05-31 12:51:00,90.1,69.6,30.00,SE,135,3.3,11.5,51,0.00,CLR,,0.00,WeatherDisplay:10.37,2013-05-31 16:51:00,
2013-05-31 12:56:00,90.3,70.9,30.00,West,270,3.8,11.5,53,0.00,CLR,,0.00,WeatherDisplay:10.37,2013-05-31 16:56:00,
2013-05-31 13:01:00,90.7,70.6,30.00,SSW,202,9.9,11.5,52,0.00,CLR,,0.00,WeatherDisplay:10.37,2013-05-31 17:01:00,
2013-05-31 13:06:00,91.0,69.8,30.00,SSW,202,6.2,11.5,50,0.00,CLR,,0.00,WeatherDisplay:10.37,2013-05-31 17:06:00,
2013-05-31 13:11:00,90.7,68.9,30.00,SSW,202,4.3,11.5,49,0.00,CLR,,0.00,WeatherDisplay:10.37,2013-05-31 17:11:00,
2013-05-31 13:16:00,90.5,69.3,30.00,SW,225,4.7,11.5,50,0.00,CLR,,0.00,WeatherDisplay:10.37,2013-05-31 17:16:00,
2013-05-31 13:21:00,90.9,71.4,30.00,SSW,202,1.8,11.5,53,0.00,CLR,,0.00,WeatherDisplay:10.37,2013-05-31 17:21:00,
2013-05-31 13:26:00,91.2,70.6,29.99,SW,225,1.4,11.5,51,0.00,CLR,,0.00,WeatherDisplay:10.37,2013-05-31 17:26:00,
2013-05-31 13:31:00,91.8,71.6,29.99,SSW,202,1.4,11.5,52,0.00,CLR,,0.00,WeatherDisplay:10.37,2013-05-31 17:31:00,
2013-05-31 13:36:00,91.9,71.2,29.99,SW,225,1.8,11.5,51,0.00,CLR,,0.00,WeatherDisplay:10.37,2013-05-31 17:36:00,
2013-05-31 13:41:00,92.1,70.8,29.99,SW,225,4.0,11.5,50,0.00,CLR,,0.00,WeatherDisplay:10.37,2013-05-31 17:41:00,
2013-05-31 13:46:00,91.8,69.9,29.99,WSW,248,6.0,11.5,49,0.00,CLR,,0.00,WeatherDisplay:10.37,2013-05-31 17:46:00,
2013-05-31 13:51:00,91.6,70.9,29.99,South,180,2.2,11.5,51,0.00,CLR,,0.00,WeatherDisplay:10.37,2013-05-31 17:51:00,
2013-05-31 13:56:00,91.4,70.7,29.99,SSW,202,6.2,11.5,51,0.00,CLR,,0.00,WeatherDisplay:10.37,2013-05-31 17:56:00,
2013-05-31 14:01:00,91.6,70.3,29.99,SW,225,4.3,11.5,50,0.00,CLR,,0.00,WeatherDisplay:10.37,2013-05-31 18:01:00,
2013-05-31 14:06:00,91.4,69.6,29.99,SSW,202,9.0,11.5,49,0.00,CLR,,0.00,WeatherDisplay:10.37,2013-05-31 18:06:00,
2013-05-31 14:11:00,91.2,69.4,29.99,SW,225,9.9,9.9,49,0.00,CLR,,0.00,WeatherDisplay:10.37,2013-05-31 18:11:00,
2013-05-31 14:16:00,91.4,69.6,29.98,SSW,202,8.3,9.2,49,0.00,CLR,,0.00,WeatherDisplay:10.37,2013-05-31 18:16:00,
2013-05-31 14:21:00,91.4,69.0,29.98,SE,135,6.9,8.1,48,0.00,CLR,,0.00,WeatherDisplay:10.37,2013-05-31 18:21:00,
2013-05-31 14:26:00,91.2,68.2,29.98,SSW,202,6.2,10.4,47,0.00,CLR,,0.00,WeatherDisplay:10.37,2013-05-31 18:26:00,
2013-05-31 14:31:00,90.7,69.5,29.98,SSW,202,6.2,8.3,50,0.00,CLR,,0.00,WeatherDisplay:10.37,2013-05-31 18:31:00,
2013-05-31 14:36:00,90.7,69.5,29.98,SSW,202,1.1,8.3,50,0.00,CLR,,0.00,WeatherDisplay:10.37,2013-05-31 18:36:00,
2013-05-31 14:41:00,90.7,68.9,29.98,SSW,202,4.0,8.3,49,0.00,CLR,,0.00,WeatherDisplay:10.37,2013-05-31 18:41:00,
2013-05-31 14:46:00,90.7,68.9,29.98,SW,225,3.3,8.3,49,0.00,CLR,,0.00,WeatherDisplay:10.37,2013-05-31 18:46:00,
2013-05-31 14:51:00,90.5,68.7,29.98,SW,225,4.9,8.3,49,0.00,CLR,,0.00,WeatherDisplay:10.37,2013-05-31 18:51:00,
2013-05-31 14:56:00,90.5,69.3,29.97,SSW,202,3.6,8.3,50,0.00,CLR,,0.00,WeatherDisplay:10.37,2013-05-31 18:56:00,
2013-05-31 15:01:00,90.5,67.5,29.97,SW,225,9.2,9.6,47,0.00,CLR,,0.00,WeatherDisplay:10.37,2013-05-31 19:01:00,
2013-05-31 15:06:00,90.3,69.2,29.97,South,180,1.6,9.6,50,0.00,CLR,,0.00,WeatherDisplay:10.37,2013-05-31 19:06:00,
2013-05-31 15:11:00,90.7,69.5,29.97,SW,225,2.0,9.6,50,0.00,CLR,,0.00,WeatherDisplay:10.37,2013-05-31 19:11:00,
2013-05-31 15:16:00,90.9,69.7,29.97,SW,225,0.9,9.6,50,0.00,CLR,,0.00,WeatherDisplay:10.37,2013-05-31 19:16:00,
2013-05-31 15:21:00,90.9,69.1,29.97,WSW,248,1.8,9.6,49,0.00,CLR,,0.00,WeatherDisplay:10.37,2013-05-31 19:21:00,
2013-05-31 15:26:00,90.3,68.0,29.97,SSW,202,1.8,9.6,48,0.00,CLR,,0.00,WeatherDisplay:10.37,2013-05-31 19:26:00,
2013-05-31 15:31:00,90.0,68.2,29.97,SSW,202,2.6,9.6,49,0.00,CLR,,0.00,WeatherDisplay:10.37,2013-05-31 19:31:00,
2013-05-31 15:36:00,90.0,68.8,29.97,SSW,202,0.9,9.6,50,0.00,CLR,,0.00,WeatherDisplay:10.37,2013-05-31 19:36:00,
2013-05-31 15:41:00,90.0,69.4,29.96,SSW,202,6.4,9.6,51,0.00,CLR,,0.00,WeatherDisplay:10.37,2013-05-31 19:41:00,
2013-05-31 15:46:00,90.3,69.2,29.96,SW,225,5.4,9.6,50,0.00,CLR,,0.00,WeatherDisplay:10.37,2013-05-31 19:46:00,
2013-05-31 15:51:00,90.1,69.6,29.96,SW,225,4.7,9.6,51,0.00,CLR,,0.00,WeatherDisplay:10.37,2013-05-31 19:51:00,
2013-05-31 15:56:00,90.3,68.6,29.96,SW,225,4.5,11.5,49,0.00,CLR,,0.00,WeatherDisplay:10.37,2013-05-31 19:56:00,
2013-05-31 16:01:00,90.3,69.7,29.96,SW,225,4.5,9.2,51,0.00,CLR,,0.00,WeatherDisplay:10.37,2013-05-31 20:01:00,
2013-05-31 16:06:00,90.3,69.2,29.96,SW,225,5.2,5.2,50,0.00,CLR,,0.00,WeatherDisplay:10.37,2013-05-31 20:06:00,
2013-05-31 16:11:00,90.3,69.2,29.96,WSW,248,5.9,5.9,50,0.00,CLR,,0.00,WeatherDisplay:10.37,2013-05-31 20:11:00,
2013-05-31 16:16:00,90.1,69.0,29.96,SW,225,4.7,9.2,50,0.00,CLR,,0.00,WeatherDisplay:10.37,2013-05-31 20:16:00,
2013-05-31 16:21:00,90.3,69.2,29.97,SW,225,5.9,9.2,50,0.00,CLR,,0.00,WeatherDisplay:10.37,2013-05-31 20:21:00,
2013-05-31 16:26:00,90.5,69.3,29.96,South,180,2.0,5.8,50,0.00,CLR,,0.00,WeatherDisplay:10.37,2013-05-31 20:26:00,
2013-05-31 16:31:00,91.6,69.7,29.96,South,180,6.9,6.9,49,0.00,CLR,,0.00,WeatherDisplay:10.37,2013-05-31 20:31:00,
2013-05-31 16:36:00,92.1,69.6,29.96,SSW,202,2.2,4.6,48,0.00,CLR,,0.00,WeatherDisplay:10.37,2013-05-31 20:36:00,
2013-05-31 16:41:00,93.2,70.6,29.96,SSE,158,2.4,3.5,48,0.00,CLR,,0.00,WeatherDisplay:10.37,2013-05-31 20:41:00,
2013-05-31 16:46:00,94.3,69.7,29.96,SW,225,4.7,5.8,45,0.00,CLR,,0.00,WeatherDisplay:10.37,2013-05-31 20:46:00,
2013-05-31 16:51:00,95.0,69.7,29.96,SSE,158,10.0,10.0,44,0.00,CLR,,0.00,WeatherDisplay:10.37,2013-05-31 20:51:00,
2013-05-31 16:56:00,94.3,68.3,29.95,South,180,4.0,9.2,43,0.00,CLR,,0.00,WeatherDisplay:10.37,2013-05-31 20:56:00,
2013-05-31 17:01:00,93.6,69.0,29.95,SSE,158,1.1,6.9,45,0.00,CLR,,0.00,WeatherDisplay:10.37,2013-05-31 21:01:00,
2013-05-31 17:06:00,93.2,69.3,29.95,WSW,248,3.6,4.6,46,0.00,CLR,,0.00,WeatherDisplay:10.37,2013-05-31 21:06:00,
2013-05-31 17:11:00,91.2,67.5,29.95,SSW,202,1.6,2.7,46,0.00,CLR,,0.00,WeatherDisplay:10.37,2013-05-31 21:11:00,
2013-05-31 17:16:00,89.4,67.1,29.95,South,180,2.6,4.6,48,0.00,CLR,,0.00,WeatherDisplay:10.37,2013-05-31 21:16:00,
2013-05-31 17:21:00,87.8,66.8,29.95,SSW,202,1.6,2.7,50,0.00,CLR,,0.00,WeatherDisplay:10.37,2013-05-31 21:21:00,
2013-05-31 17:26:00,86.9,67.2,29.95,SW,225,4.0,5.8,52,0.00,CLR,,0.00,WeatherDisplay:10.37,2013-05-31 21:26:00,
2013-05-31 17:31:00,86.0,66.3,29.95,SW,225,2.6,3.5,52,0.00,CLR,,0.00,WeatherDisplay:10.37,2013-05-31 21:31:00,
2013-05-31 17:36:00,85.5,66.4,29.95,South,180,2.9,4.6,53,0.00,CLR,,0.00,WeatherDisplay:10.37,2013-05-31 21:36:00,
2013-05-31 17:41:00,85.3,66.8,29.94,SW,225,4.5,4.5,54,0.00,CLR,,0.00,WeatherDisplay:10.37,2013-05-31 21:41:00,
2013-05-31 17:46:00,84.9,66.9,29.94,WSW,248,2.0,4.6,55,0.00,CLR,,0.00,WeatherDisplay:10.37,2013-05-31 21:46:00,
2013-05-31 17:51:00,84.0,66.6,29.94,SSW,202,3.6,5.8,56,0.00,CLR,,0.00,WeatherDisplay:10.37,2013-05-31 21:51:00,
2013-05-31 17:56:00,83.5,66.6,29.94,SW,225,1.8,6.9,57,0.00,CLR,,0.00,WeatherDisplay:10.37,2013-05-31 21:56:00,
2013-05-31 18:01:00,83.1,65.8,29.93,SSW,202,2.9,4.0,56,0.00,CLR,,0.00,WeatherDisplay:10.37,2013-05-31 22:01:00,
2013-05-31 18:06:00,82.6,65.8,29.93,SSW,202,1.6,4.0,57,0.00,CLR,,0.00,WeatherDisplay:10.37,2013-05-31 22:06:00,
2013-05-31 18:11:00,82.0,65.8,29.93,WNW,292,6.9,6.9,58,0.00,CLR,,0.00,WeatherDisplay:10.37,2013-05-31 22:11:00,
2013-05-31 18:16:00,81.7,65.5,29.93,SSW,202,2.0,4.6,58,0.00,CLR,,0.00,WeatherDisplay:10.37,2013-05-31 22:16:00,
2013-05-31 18:21:00,81.5,65.3,29.93,SSW,202,3.1,4.6,58,0.00,CLR,,0.00,WeatherDisplay:10.37,2013-05-31 22:21:00,
2013-05-31 18:26:00,81.1,65.5,29.94,SW,225,3.3,4.6,59,0.00,CLR,,0.00,WeatherDisplay:10.37,2013-05-31 22:26:00,
2013-05-31 18:31:00,81.0,65.8,29.93,South,180,1.6,4.0,60,0.00,CLR,,0.00,WeatherDisplay:10.37,2013-05-31 22:31:00,
2013-05-31 18:36:00,81.0,65.3,29.93,WNW,292,2.0,4.0,59,0.00,CLR,,0.00,WeatherDisplay:10.37,2013-05-31 22:36:00,
2013-05-31 18:41:00,80.4,64.8,29.93,SW,225,0.7,4.0,59,0.00,CLR,,0.00,WeatherDisplay:10.37,2013-05-31 22:41:00,
2013-05-31 18:46:00,80.1,64.4,29.93,West,270,2.4,5.8,59,0.00,CLR,,0.00,WeatherDisplay:10.37,2013-05-31 22:46:00,
2013-05-31 18:51:00,79.3,64.2,29.93,SW,225,4.3,4.3,60,0.00,CLR,,0.00,WeatherDisplay:10.37,2013-05-31 22:51:00,
2013-05-31 18:56:00,78.6,63.6,29.93,SSW,202,2.0,5.8,60,0.00,CLR,,0.00,WeatherDisplay:10.37,2013-05-31 22:56:00,
2013-05-31 19:01:00,78.1,63.5,29.93,SW,225,2.6,3.5,61,0.00,CLR,,0.00,WeatherDisplay:10.37,2013-05-31 23:01:00,
2013-05-31 19:06:00,77.7,63.7,29.93,WSW,248,1.4,3.5,62,0.00,CLR,,0.00,WeatherDisplay:10.37,2013-05-31 23:06:00,
2013-05-31 19:11:00,77.4,63.8,29.93,SSW,202,4.7,4.7,63,0.00,CLR,,0.00,WeatherDisplay:10.37,2013-05-31 23:11:00,
2013-05-31 19:16:00,76.8,63.3,29.93,SW,225,0.7,3.5,63,0.00,CLR,,0.00,WeatherDisplay:10.37,2013-05-31 23:16:00,
2013-05-31 19:21:00,76.5,63.8,29.93,SW,225,2.6,4.0,65,0.00,CLR,,0.00,WeatherDisplay:10.37,2013-05-31 23:21:00,
2013-05-31 19:26:00,75.9,63.3,29.93,WSW,248,3.8,4.0,65,0.00,CLR,,0.00,WeatherDisplay:10.37,2013-05-31 23:26:00,
2013-05-31 19:31:00,75.6,63.4,29.93,SSW,202,1.8,4.6,66,0.00,CLR,,0.00,WeatherDisplay:10.37,2013-05-31 23:31:00,
2013-05-31 19:36:00,75.4,62.8,29.93,SSW,202,0.9,4.0,65,0.00,CLR,,0.00,WeatherDisplay:10.37,2013-05-31 23:36:00,
2013-05-31 19:41:00,75.2,63.1,29.93,SW,225,2.9,3.5,66,0.00,CLR,,0.00,WeatherDisplay:10.37,2013-05-31 23:41:00,
2013-05-31 19:46:00,74.8,62.7,29.93,SW,225,0.9,4.0,66,0.00,CLR,,0.00,WeatherDisplay:10.37,2013-05-31 23:46:00,
2013-05-31 19:51:00,74.5,62.4,29.93,SW,225,0.5,4.0,66,0.00,CLR,,0.00,WeatherDisplay:10.37,2013-05-31 23:51:00,
2013-05-31 19:56:00,74.1,62.5,29.93,SW,225,3.3,4.0,67,0.00,CLR,,0.00,WeatherDisplay:10.37,2013-05-31 23:56:00,
2013-05-31 20:01:00,73.8,62.5,29.93,SSW,202,1.8,4.0,68,0.00,CLR,,0.00,WeatherDisplay:10.37,2013-06-01 00:01:00,
2013-05-31 20:06:00,73.2,62.0,29.93,SSW,202,1.8,4.0,68,0.00,CLR,,0.00,WeatherDisplay:10.37,2013-06-01 00:06:00,
2013-05-31 20:11:00,73.0,62.7,29.93,SSW,202,0.5,4.0,70,0.00,CLR,,0.00,WeatherDisplay:10.37,2013-06-01 00:11:00,
2013-05-31 20:16:00,72.7,61.9,29.94,SW,225,3.3,4.0,69,0.00,CLR,,0.00,WeatherDisplay:10.37,2013-06-01 00:16:00,
2013-05-31 20:21:00,72.3,62.4,29.93,SW,225,3.3,4.0,71,0.00,CLR,,0.00,WeatherDisplay:10.37,2013-06-01 00:21:00,
2013-05-31 20:26:00,72.1,62.2,29.94,SSE,158,1.1,4.0,71,0.00,CLR,,0.00,WeatherDisplay:10.37,2013-06-01 00:26:00,
2013-05-31 20:31:00,71.8,61.5,29.94,South,180,1.1,4.0,70,0.00,CLR,,0.00,WeatherDisplay:10.37,2013-06-01 00:31:00,
2013-05-31 20:36:00,71.2,61.0,29.94,SSW,202,2.9,4.0,70,0.00,CLR,,0.00,WeatherDisplay:10.37,2013-06-01 00:36:00,
2013-05-31 20:41:00,70.9,61.0,29.94,SSW,202,2.0,4.0,71,0.00,CLR,,0.00,WeatherDisplay:10.37,2013-06-01 00:41:00,
2013-05-31 20:46:00,70.5,60.3,29.94,SSW,202,0.5,4.0,70,0.00,CLR,,0.00,WeatherDisplay:10.37,2013-06-01 00:46:00,
2013-05-31 20:51:00,70.3,60.5,29.94,SW,225,1.8,4.0,71,0.00,CLR,,0.00,WeatherDisplay:10.37,2013-06-01 00:51:00,
2013-05-31 20:56:00,70.0,60.5,29.94,WNW,292,2.2,4.0,72,0.00,CLR,,0.00,WeatherDisplay:10.37,2013-06-01 00:56:00,
2013-05-31 21:01:00,69.8,60.4,29.95,SW,225,1.1,3.5,72,0.00,CLR,,0.00,WeatherDisplay:10.37,2013-06-01 01:01:00,
2013-05-31 21:06:00,69.6,60.2,29.95,SSW,202,0.9,1.3,72,0.00,CLR,,0.00,WeatherDisplay:10.37,2013-06-01 01:06:00,
2013-05-31 21:11:00,69.4,60.4,29.95,SSW,202,0.9,1.3,73,0.00,CLR,,0.00,WeatherDisplay:10.37,2013-06-01 01:11:00,
2013-05-31 21:16:00,69.4,60.4,29.95,SSW,202,0.9,1.3,73,0.00,CLR,,0.00,WeatherDisplay:10.37,2013-06-01 01:16:00,
2013-05-31 21:21:00,69.4,60.4,29.95,SSW,202,0.9,1.3,73,0.00,CLR,,0.00,WeatherDisplay:10.37,2013-06-01 01:21:00,
2013-05-31 21:26:00,69.3,60.6,29.95,SSW,202,0.9,1.3,74,0.00,CLR,,0.00,WeatherDisplay:10.37,2013-06-01 01:26:00,
2013-05-31 21:31:00,69.1,60.4,29.95,SSW,202,0.9,1.3,74,0.00,CLR,,0.00,WeatherDisplay:10.37,2013-06-01 01:31:00,
2013-05-31 21:36:00,68.9,59.5,29.95,SSW,202,0.9,1.3,72,0.00,CLR,,0.00,WeatherDisplay:10.37,2013-06-01 01:36:00,
2013-05-31 21:41:00,68.9,59.9,29.95,SSW,202,0.9,1.3,73,0.00,CLR,,0.00,WeatherDisplay:10.37,2013-06-01 01:41:00,
2013-05-31 21:46:00,68.7,59.3,29.95,SSW,202,0.9,1.3,72,0.00,CLR,,0.00,WeatherDisplay:10.37,2013-06-01 01:46:00,
2013-05-31 21:51:00,68.7,59.3,29.95,SSW,202,0.9,1.3,72,0.00,CLR,,0.00,WeatherDisplay:10.37,2013-06-01 01:51:00,
2013-05-31 21:56:00,68.7,59.3,29.95,SSW,202,0.9,1.3,72,0.00,CLR,,0.00,WeatherDisplay:10.37,2013-06-01 01:56:00,
2013-05-31 22:01:00,68.7,59.7,29.95,SSW,202,0.9,1.3,73,0.00,CLR,,0.00,WeatherDisplay:10.37,2013-06-01 02:01:00,
2013-05-31 22:06:00,68.7,59.7,29.95,SSW,202,0.9,1.3,73,0.00,CLR,,0.00,WeatherDisplay:10.37,2013-06-01 02:06:00,
2013-05-31 22:11:00,68.7,59.7,29.95,SSW,202,0.9,1.3,73,0.00,CLR,,0.00,WeatherDisplay:10.37,2013-06-01 02:11:00,
2013-05-31 22:16:00,68.5,59.9,29.95,SSW,202,0.9,1.3,74,0.00,CLR,,0.00,WeatherDisplay:10.37,2013-06-01 02:16:00,
2013-05-31 22:21:00,68.5,59.9,29.95,SSW,202,0.9,1.1,74,0.00,CLR,,0.00,WeatherDisplay:10.37,2013-06-01 02:21:00,
2013-05-31 22:26:00,68.5,59.9,29.95,SSW,202,0.9,1.1,74,0.00,CLR,,0.00,WeatherDisplay:10.37,2013-06-01 02:26:00,
2013-05-31 22:31:00,68.5,59.9,29.95,SSW,202,0.9,1.3,74,0.00,CLR,,0.00,WeatherDisplay:10.37,2013-06-01 02:31:00,
2013-05-31 22:36:00,68.5,59.9,29.95,SSW,202,0.9,1.3,74,0.00,CLR,,0.00,WeatherDisplay:10.37,2013-06-01 02:36:00,
2013-05-31 22:41:00,68.5,59.9,29.95,SSW,202,0.9,1.3,74,0.00,CLR,,0.00,WeatherDisplay:10.37,2013-06-01 02:41:00,
2013-05-31 22:46:00,68.4,59.7,29.95,SSW,202,0.9,1.3,74,0.00,CLR,,0.00,WeatherDisplay:10.37,2013-06-01 02:46:00,
2013-05-31 22:51:00,68.2,59.6,29.95,SSW,202,0.9,1.3,74,0.00,CLR,,0.00,WeatherDisplay:10.37,2013-06-01 02:51:00,
2013-05-31 22:56:00,68.0,59.4,29.95,SSW,202,0.9,1.3,74,0.00,CLR,,0.00,WeatherDisplay:10.37,2013-06-01 02:56:00,
2013-05-31 23:01:00,67.8,59.6,29.95,SSW,202,0.9,1.3,75,0.00,CLR,,0.00,WeatherDisplay:10.37,2013-06-01 03:01:00,
2013-05-31 23:06:00,67.6,59.4,29.95,SSW,202,0.9,1.3,75,0.00,CLR,,0.00,WeatherDisplay:10.37,2013-06-01 03:06:00,
2013-05-31 23:11:00,67.6,59.8,29.95,SSW,202,0.9,1.3,76,0.00,CLR,,0.00,WeatherDisplay:10.37,2013-06-01 03:11:00,
2013-05-31 23:16:00,67.3,59.5,29.95,SSW,202,0.9,1.3,76,0.00,CLR,,0.00,WeatherDisplay:10.37,2013-06-01 03:16:00,
2013-05-31 23:21:00,67.1,59.3,29.95,SSW,202,0.9,1.3,76,0.00,CLR,,0.00,WeatherDisplay:10.37,2013-06-01 03:21:00,
2013-05-31 23:26:00,66.9,59.5,29.95,SSW,202,0.9,1.1,77,0.00,CLR,,0.00,WeatherDisplay:10.37,2013-06-01 03:26:00,
2013-05-31 23:31:00,66.6,59.1,29.95,SSW,202,0.9,1.3,77,0.00,CLR,,0.00,WeatherDisplay:10.37,2013-06-01 03:31:00,
2013-05-31 23:36:00,66.4,58.9,29.95,SSW,202,0.9,1.3,77,0.00,CLR,,0.00,WeatherDisplay:10.37,2013-06-01 03:36:00,
2013-05-31 23:41:00,66.2,59.1,29.95,SSW,202,0.9,1.3,78,0.00,CLR,,0.00,WeatherDisplay:10.37,2013-06-01 03:41:00,
2013-05-31 23:46:00,66.2,59.1,29.95,SSW,202,0.9,1.3,78,0.00,CLR,,0.00,WeatherDisplay:10.37,2013-06-01 03:46:00,
2013-05-31 23:51:00,66.2,59.5,29.95,SSW,202,0.9,1.3,79,0.00,CLR,,0.00,WeatherDisplay:10.37,2013-06-01 03:51:00,
2013-05-31 23:56:00,66.0,59.3,29.95,SSW,202,0.9,1.3,79,0.00,CLR,,0.00,WeatherDisplay:10.37,2013-06-01 03:56:00,